Regional Weather Roundup
Issued by NWS

Home | Current Version | Previous Version | Graphics & Text | Print | Product List | Glossary On
Versions: 1 2 3 4 5 6 7 8 9 10 11 12 13 14 15 16 17 18 19 20 21 22 23 24 25 26 27 28 29 30 31 32 33 34 35 36 37 38 39 40 41 42 43 44 45 46 47 48 49 50
170
ASUS43 KFSD 220602
RWRSD

WEATHER ROUNDUP FOR SOUTH DAKOTA
NATIONAL WEATHER SERVICE SIOUX FALLS SD
1200 AM CST WED NOV 22 2017

NOTE: "FAIR" INDICATES FEW OR NO CLOUDS BELOW 12,000 FEET WITH NO
SIGNIFICANT WEATHER AND/OR OBSTRUCTIONS TO VISIBILITY.


SDZ001>005-009-010-012>017-220700-
NORTHWEST AND NORTH CENTRAL SOUTH DAKOTA

CITY           SKY/WX    TMP DP  RH WIND       PRES   REMARKS
BUFFALO          N/A     23  14  68 S9        30.07F WCI  13
FAITH            N/A     17   7  64 SE9       30.20F WCI   6
MOBRIDGE       CLOUDY    14   8  77 SE7       30.24F WCI   4
$$

SDZ012>016-024>037-041>051-057-063-072>074-220700-
SOUTHWEST AND SOUTH CENTRAL SOUTH DAKOTA

CITY           SKY/WX    TMP DP  RH WIND       PRES   REMARKS
RAPID CTY ARPT CLOUDY    24  18  77 SE6       30.17F WCI  17
PIERRE         CLOUDY    12   7  80 CALM      30.30F
CUSTER         CLOUDY    32  23  69 W3        30.15F
ELLSWORTH AFB  CLOUDY    29  20  66 S6        30.15F WCI  23
PHILIP         CLOUDY    16  13  88 CALM      30.26F
PINE RIDGE     CLOUDY    32  25  75 CALM      30.20F
SPEARFISH      FAIR      30  27  86 SE3       30.12F
WINNER         FAIR      16   9  74 S8        30.32F WCI   5
$$

SDZ004>011-016>023-039-040-220700-
NORTHEAST SOUTH DAKOTA

CITY           SKY/WX    TMP DP  RH WIND       PRES   REMARKS
ABERDEEN       CLOUDY     3   0  87 CALM      30.36R
WATERTOWN      CLOUDY    13   9  84 CALM      30.30F
BROOKINGS      CLOUDY    14   8  77 CALM      30.33F
SISSETON         N/A     10   6  84 CALM      30.35R
$$

SDZ017-020-022-023-036>040-048>070-220700-
SOUTHEAST SOUTH DAKOTA

CITY           SKY/WX    TMP DP  RH WIND       PRES   REMARKS
SIOUX FALLS    CLOUDY    14   7  73 W3        30.37R
HURON          CLOUDY    10   6  84 SW3       30.36F
CHAMBERLAIN    CLOUDY    13  11  91 CALM      30.34S
MITCHELL       CLOUDY    14   7  73 W3        30.38F
YANKTON        CLOUDY    13   8  81 NW5       30.40S WCI   5
$$

ABBREVIATIONS USED IN REMARKS
   TC - TEMPERATURE IN CELSIUS
  WCI - WIND CHILL INDEX
   HX - HEAT INDEX
  VSB - VISIBILITY





USA.gov is the U.S. government's official web portal to all federal, state and local government web resources and services.